GW2278 Weather Reports


time (UTC)temp
F
wind
direction
speed
knots
gust
knots
rain 1hr
in
rain 24hr
in
rain mn
in
humidity
%
barometer
mb
20260505140548 65 126 1.7 6.1 0.00 0.00 0.00 69 1009.2
20260505125001 60 242 1.7 5.2 0.00 0.00 0.00 77 1009.5
20260505124458 60 212 0.0 3.5 0.00 0.00 0.00 79 1009.7
20260505123954 59 180 3.5 7.0 0.00 0.00 0.00 80 1009.8
20260505123451 58 123 3.5 4.3 0.00 0.00 0.00 82 1009.5
20260505122947 57 123 1.7 5.2 0.00 0.00 0.00 84 1009.7
20260505122444 57 142 2.6 3.5 0.00 0.00 0.00 85 1009.5
20260505121941 56 244 1.7 4.3 0.00 0.00 0.00 86 1009.7
20260505121438 56 214 4.3 6.1 0.00 0.00 0.00 87 1009.7
20260505120933 55 184 2.6 4.3 0.00 0.00 0.00 89 1009.5
20260505120430 54 141 0.9 7.0 0.00 0.00 0.00 89 1009.7
20260505115929 54 140 3.5 6.1 0.00 0.00 0.00 91 1009.6
20260505115426 53 161 5.2 8.7 0.00 0.00 0.00 92 1009.7
20260505114924 52 220 4.3 5.2 0.00 0.00 0.00 92 1009.9
20260505114420 52 145 4.3 6.1 0.00 0.00 0.00 93 1009.6
20260505113916 52 138 1.7 5.2 0.00 0.00 0.00 93 1009.7
20260505113413 52 173 1.7 7.8 0.00 0.00 0.00 94 1009.8
20260505112909 52 190 5.2 6.1 0.00 0.00 0.00 94 1010.0
20260505112407 52 211 2.6 7.0 0.00 0.00 0.00 95 1009.5
20260505111903 51 152 2.6 5.2 0.00 0.00 0.00 95 1009.3
20260505111357 51 127 2.6 7.0 0.00 0.00 0.00 96 1009.6
20260505110854 51 120 2.6 6.1 0.00 0.00 0.00 96 1009.3
20260505110351 50 193 5.2 6.1 0.00 0.00 0.00 96 1009.2
20260505101821 50 130 1.7 6.1 0.00 0.00 0.00 97 1009.1
20260505101316 50 144 1.7 3.5 0.00 0.00 0.00 97 1009.0
20260505100813 49 180 3.5 6.1 0.00 0.00 0.00 97 1009.0
20260505100309 49 72 0.0 3.5 0.00 0.00 0.00 96 1008.8
20260505095805 49 145 1.7 4.3 0.00 0.00 0.00 96 1008.9
20260505095304 49 145 1.7 5.2 0.00 0.00 0.00 96 1008.9
20260505094758 49 139 0.9 3.5 0.00 0.00 0.00 96 1008.9
20260505094255 49 178 1.7 4.3 0.00 0.00 0.00 96 1008.8
20260505093751 49 123 2.6 5.2 0.00 0.00 0.00 96 1008.8
20260505093249 49 152 0.9 4.3 0.00 0.00 0.00 96 1008.6
20260505092745 49 115 1.7 4.3 0.00 0.00 0.00 95 1009.0
20260505092238 49 132 0.9 2.6 0.00 0.00 0.00 95 1008.8
20260505091735 49 138 0.9 4.3 0.00 0.00 0.00 95 1008.9
20260505091233 49 168 0.9 3.5 0.00 0.00 0.00 95 1008.7
20260505090730 49 144 1.7 3.5 0.00 0.00 0.00 95 1008.7
20260505090229 48 101 2.6 3.5 0.00 0.00 0.00 95 1009.0
20260505085726 48 115 2.6 3.5 0.00 0.00 0.00 95 1008.9
20260505085224 48 105 2.6 3.5 0.00 0.00 0.00 95 1008.7
20260505084721 48 128 2.6 3.5 0.00 0.00 0.00 94 1008.9
20260505084220 48 33 0.9 2.6 0.00 0.00 0.00 94 1009.0
20260505083716 49 91 2.6 4.3 0.00 0.00 0.00 94 1008.9
20260505083213 49 85 0.9 2.6 0.00 0.00 0.00 94 1009.0
20260505082709 49 131 2.6 3.5 0.00 0.00 0.00 94 1008.9
20260505082207 49 113 1.7 2.6 0.00 0.00 0.00 94 1009.1
20260505081702 49 93 1.7 2.6 0.00 0.00 0.00 93 1008.9
20260505081200 48 134 1.7 4.3 0.00 0.00 0.00 93 1009.0
20260505080657 48 146 0.9 3.5 0.00 0.00 0.00 93 1009.1
20260505080152 49 72 0.0 2.6 0.00 0.00 0.00 92 1009.1
20260505075649 49 92 0.9 2.6 0.00 0.00 0.00 92 1009.1
20260505075146 49 96 0.0 2.6 0.00 0.00 0.00 91 1008.9
20260505074643 49 78 0.9 3.5 0.00 0.00 0.00 91 1009.2
20260505074139 49 35 0.9 2.6 0.00 0.00 0.00 91 1009.4
20260505073637 50 117 0.0 3.5 0.00 0.00 0.00 90 1009.1
20260505073135 50 146 1.7 6.1 0.00 0.00 0.00 90 1009.1
20260505072630 50 164 1.7 4.3 0.00 0.00 0.00 90 1009.1
20260505072127 50 161 1.7 5.2 0.00 0.00 0.00 89 1009.2
20260505071623 50 160 2.6 6.1 0.00 0.00 0.00 89 1009.1
20260505071121 50 137 1.7 3.5 0.00 0.00 0.00 89 1009.2
20260505070618 50 146 2.6 3.5 0.00 0.00 0.00 88 1009.3
20260505070114 50 103 1.7 2.6 0.00 0.00 0.00 88 1009.3
20260505065610 50 117 2.6 3.5 0.00 0.00 0.00 88 1009.2
20260505065107 50 118 1.7 3.5 0.00 0.00 0.00 87 1009.2
20260505064604 50 123 1.7 4.3 0.00 0.00 0.00 87 1009.2
20260505064103 50 119 2.6 4.3 0.00 0.00 0.00 87 1009.2
20260505063559 50 115 1.7 3.5 0.00 0.00 0.00 87 1009.2
20260505063055 49 113 2.6 3.5 0.00 0.00 0.00 87 1009.1
20260505062552 49 84 2.6 3.5 0.00 0.00 0.00 87 1009.4
20260505062049 49 104 1.7 2.6 0.00 0.00 0.00 86 1009.5
20260505061546 49 99 0.9 2.6 0.00 0.00 0.00 86 1009.5
20260505061044 50 113 2.6 3.5 0.00 0.00 0.00 86 1009.3
20260505060541 50 89 0.0 2.6 0.00 0.00 0.00 85 1009.5
20260505060038 50 118 0.9 3.5 0.00 0.00 0.00 85 1009.4
20260505055533 50 96 1.7 3.5 0.00 0.00 0.00 85 1009.6
20260505055030 50 82 1.7 1.7 0.00 0.00 0.00 85 1009.6
20260505054527 50 77 1.7 3.5 0.00 0.00 0.00 84 1009.4
20260505054026 50 96 1.7 2.6 0.00 0.00 0.00 84 1009.6
20260505053522 50 102 2.6 3.5 0.00 0.00 0.00 84 1009.6
20260505053019 50 61 1.7 3.5 0.00 0.00 0.00 84 1009.7
20260505052516 50 108 3.5 4.3 0.00 0.00 0.00 84 1009.4
20260505052014 50 98 2.6 3.5 0.00 0.00 0.00 83 1009.7
20260505051510 50 96 1.7 2.6 0.00 0.00 0.00 83 1009.8
20260505051009 50 98 1.7 3.5 0.00 0.00 0.00 83 1009.9
20260505050506 50 86 2.6 3.5 0.00 0.00 0.00 82 1009.9
20260505041434 51 118 1.7 2.6 0.00 0.00 0.00 80 1010.0
20260505040931 51 212 0.0 4.3 0.00 0.00 0.00 80 1009.9
20260505040429 51 148 2.6 3.5 0.00 0.00 0.00 80 1010.0
20260505035925 51 174 3.5 5.2 0.00 0.00 0.00 80 1009.9
20260505035421 51 155 0.0 4.3 0.00 0.00 0.00 80 1010.0
20260505034919 51 167 0.9 6.1 0.00 0.00 0.00 80 1009.9
20260505034415 51 137 1.7 2.6 0.00 0.00 0.00 80 1009.9
20260505033912 51 155 0.0 2.6 0.00 0.00 0.00 80 1009.8
20260505033409 51 192 4.3 6.1 0.00 0.00 0.00 80 1009.8
20260505032907 51 96 0.0 2.6 0.00 0.00 0.00 79 1009.7
20260505032403 52 187 1.7 4.3 0.00 0.00 0.00 79 1009.8
20260505031900 51 149 0.9 3.5 0.00 0.00 0.00 79 1009.7
20260505031357 52 178 0.9 4.3 0.00 0.00 0.00 79 1009.7
20260505030854 52 160 0.0 3.5 0.00 0.00 0.00 78 1010.0
20260505030350 52 173 1.7 2.6 0.00 0.00 0.00 78 1009.9
20260505025846 52 166 2.6 3.5 0.00 0.00 0.00 78 1009.9
20260505025344 52 108 1.7 4.3 0.00 0.00 0.00 77 1009.9
20260505024842 52 179 1.7 4.3 0.00 0.00 0.00 77 1009.9
20260505024339 53 177 0.0 3.5 0.00 0.00 0.00 76 1009.8
20260505023836 53 187 1.7 4.3 0.00 0.00 0.00 76 1009.8
20260505023333 53 246 2.6 4.3 0.00 0.00 0.00 76 1009.8
20260505022830 53 168 1.7 6.1 0.00 0.00 0.00 75 1009.7
20260505022327 53 140 1.7 5.2 0.00 0.00 0.00 75 1009.8
20260505021825 53 202 0.9 5.2 0.00 0.00 0.00 74 1010.2
20260505021321 53 186 0.9 5.2 0.00 0.00 0.00 74 1009.8
20260505020817 53 215 2.6 4.3 0.00 0.00 0.00 73 1009.8
20260505020313 54 164 3.5 7.0 0.00 0.00 0.00 73 1009.8
20260505015809 54 180 1.7 6.1 0.00 0.00 0.00 72 1009.8
20260505015307 54 260 1.7 7.8 0.00 0.00 0.00 71 1009.8
20260505014804 54 201 7.0 8.7 0.00 0.00 0.00 71 1009.9
20260505014301 54 162 5.2 7.8 0.00 0.00 0.00 71 1009.7
20260505013757 54 141 2.6 11.3 0.00 0.00 0.00 70 1009.7
20260505013255 55 190 0.9 5.2 0.00 0.00 0.00 70 1009.8
20260505012753 55 173 1.7 4.3 0.00 0.00 0.00 69 1009.7
20260505012250 55 238 3.5 11.3 0.00 0.00 0.00 68 1009.5
20260505011745 55 200 3.5 8.7 0.00 0.00 0.00 68 1009.5
20260505011243 55 116 0.9 10.4 0.00 0.00 0.00 67 1009.6
20260505010738 55 211 4.3 11.3 0.00 0.00 0.00 66 1009.3
20260505010235 55 211 2.6 7.8 0.00 0.00 0.00 66 1009.5
20260505005731 56 182 1.7 5.2 0.00 0.00 0.00 65 1009.4
20260505005228 56 216 6.1 9.6 0.00 0.00 0.00 65 1009.2
20260505004726 56 229 6.1 7.8 0.00 0.00 0.00 64 1009.0
20260505004222 56 294 1.7 7.8 0.00 0.00 0.00 64 1008.9
20260505003719 56 201 2.6 6.1 0.00 0.00 0.00 63 1009.0
20260505003217 57 174 4.3 9.6 0.00 0.00 0.00 63 1008.8
20260505002713 57 229 1.7 7.0 0.00 0.00 0.00 62 1008.8
20260505002211 57 235 4.3 6.1 0.00 0.00 0.00 62 1008.7
20260505001708 57 217 3.5 11.3 0.00 0.00 0.00 61 1008.3
20260505001205 57 185 6.1 10.4 0.00 0.00 0.00 61 1008.4
20260505000702 58 209 2.6 12.2 0.00 0.00 0.00 60 1008.5
20260505000200 58 142 4.3 16.5 0.00 0.00 0.00 59 1008.5
20260504235656 58 165 4.3 9.6 0.00 0.00 0.00 58 1008.4
20260504235153 59 228 3.5 7.0 0.00 0.00 0.00 58 1008.3
20260504234650 59 200 3.5 9.6 0.00 0.00 0.00 57 1008.1
20260504234147 59 242 1.7 8.7 0.00 0.00 0.00 57 1007.9
20260504233643 59 227 4.3 8.7 0.00 0.00 0.00 56 1008.0
20260504233139 60 203 5.2 7.8 0.00 0.00 0.00 55 1007.9
20260504232637 60 219 7.0 12.2 0.00 0.00 0.00 54 1008.0
20260504232133 60 161 1.7 12.2 0.00 0.00 0.00 54 1007.6
20260504231630 61 229 3.5 12.2 0.00 0.00 0.00 53 1007.5
20260504231127 61 191 9.6 17.4 0.00 0.00 0.00 52 1007.4
20260504230622 61 208 4.3 14.8 0.00 0.00 0.00 51 1007.5
20260504230122 62 222 5.2 13.9 0.00 0.00 0.00 51 1007.5
20260504225619 62 243 2.6 16.5 0.00 0.00 0.00 51 1007.4
20260504225115 62 188 11.3 12.2 0.00 0.00 0.00 51 1007.4
20260504224612 62 166 4.3 9.6 0.00 0.00 0.00 51 1007.5
20260504224109 62 223 4.3 9.6 0.00 0.00 0.00 51 1007.4
20260504223606 62 183 11.3 15.6 0.00 0.00 0.00 50 1007.5
20260504223102 63 193 6.1 17.4 0.00 0.00 0.00 49 1007.5
20260504222559 63 233 5.2 9.6 0.00 0.00 0.00 49 1007.4
20260504222056 64 229 7.0 12.2 0.00 0.00 0.00 48 1007.6
20260504221553 63 209 5.2 17.4 0.00 0.00 0.00 48 1007.5
20260504221050 64 147 5.2 15.6 0.00 0.00 0.00 48 1007.4
20260504220547 64 195 4.3 12.2 0.00 0.00 0.00 48 1007.3
20260504220044 64 175 4.3 13.9 0.00 0.00 0.00 48 1007.2
20260504215540 64 198 9.6 13.0 0.00 0.00 0.00 47 1007.2
20260504215038 64 197 2.6 11.3 0.00 0.00 0.00 46 1007.4
20260504214533 65 211 4.3 10.4 0.00 0.00 0.00 46 1007.4
20260504214030 65 212 7.0 9.6 0.00 0.00 0.00 45 1007.4
20260504213526 66 212 5.2 9.6 0.00 0.00 0.00 44 1007.4
20260504213024 66 227 7.0 19.1 0.00 0.00 0.00 44 1007.1
20260504212519 66 171 5.2 11.3 0.00 0.00 0.00 43 1007.2
20260504212017 67 334 3.5 13.9 0.00 0.00 0.00 42 1007.3
20260504211514 66 202 8.7 17.4 0.00 0.00 0.00 42 1007.2
20260504211011 67 131 4.3 13.0 0.00 0.00 0.00 42 1007.2
20260504210508 68 252 8.7 11.3 0.00 0.00 0.00 41 1007.3
20260504210005 67 208 4.3 15.6 0.00 0.00 0.00 42 1007.1
20260504205503 68 243 7.8 7.8 0.00 0.00 0.00 40 1007.3
20260504205000 67 163 4.3 13.0 0.00 0.00 0.00 41 1007.0
20260504204458 68 185 13.0 13.0 0.00 0.00 0.00 40 1006.9
20260504203957 68 244 3.5 17.4 0.00 0.00 0.00 39 1007.0
20260504203455 68 191 11.3 14.8 0.00 0.00 0.00 39 1007.0
20260504202950 68 230 12.2 14.8 0.00 0.00 0.00 40 1007.3
20260504202447 68 95 3.5 7.8 0.00 0.00 0.00 40 1007.2
20260504201944 68 193 7.0 11.3 0.00 0.00 0.00 39 1007.3
20260504201441 68 190 4.3 10.4 0.00 0.00 0.00 40 1007.2
20260504200939 68 228 6.1 16.5 0.00 0.00 0.00 38 1007.3
20260504200435 67 205 6.1 14.8 0.00 0.00 0.00 39 1007.4
20260504195932 69 287 3.5 13.9 0.00 0.00 0.00 39 1007.3
20260504195428 68 178 14.8 14.8 0.00 0.00 0.00 37 1007.1
20260504194924 68 183 5.2 13.0 0.00 0.00 0.00 38 1007.6
20260504194420 68 203 6.1 17.4 0.00 0.00 0.00 37 1007.3
20260504193916 68 208 5.2 19.1 0.00 0.00 0.00 37 1007.4
20260504193414 69 230 0.0 5.2 0.00 0.00 0.00 37 1007.2
20260504192913 69 208 7.8 13.9 0.00 0.00 0.00 36 1007.4
20260504192410 69 262 6.1 11.3 0.00 0.00 0.00 35 1007.3
20260504191908 70 234 3.5 11.3 0.00 0.00 0.00 36 1007.2
20260504191406 70 351 1.7 11.3 0.00 0.00 0.00 36 1007.3
20260504190901 70 294 3.5 8.7 0.00 0.00 0.00 34 1007.3
20260504190357 69 250 2.6 14.8 0.00 0.00 0.00 39 1007.3
20260504185854 69 220 7.0 11.3 0.00 0.00 0.00 34 1007.4
20260504185351 69 203 7.8 16.5 0.00 0.00 0.00 35 1007.5
20260504184847 69 267 4.3 12.2 0.00 0.00 0.00 34 1007.3
20260504184343 67 198 5.2 12.2 0.00 0.00 0.00 34 1007.6
20260504183839 68 175 7.8 14.8 0.00 0.00 0.00 34 1007.8
20260504183336 70 284 0.9 12.2 0.00 0.00 0.00 37 1007.6
20260504182834 69 257 4.3 12.2 0.00 0.00 0.00 35 1007.8
20260504182331 70 238 2.6 6.1 0.00 0.00 0.00 35 1007.9
20260504181828 67 233 6.1 12.2 0.00 0.00 0.00 35 1007.6
20260504181326 68 215 7.0 17.4 0.00 0.00 0.00 35 1008.0
20260504180824 68 235 6.1 13.0 0.00 0.00 0.00 35 1007.9
20260504180322 67 328 3.5 10.4 0.00 0.00 0.00 34 1007.9
20260504175820 68 190 3.5 20.0 0.00 0.00 0.00 35 1008.1
20260504175317 67 188 7.8 19.1 0.00 0.00 0.00 35 1007.6
20260504174815 67 278 3.5 17.4 0.00 0.00 0.00 34 1008.1
20260504174312 66 200 5.2 11.3 0.00 0.00 0.00 35 1008.2
20260504173809 66 230 10.4 20.0 0.00 0.00 0.00 33 1008.3
20260504173305 67 264 4.3 7.8 0.00 0.00 0.00 35 1008.3
20260504172803 66 168 4.3 13.9 0.00 0.00 0.00 33 1008.1
20260504172259 67 248 5.2 15.6 0.00 0.00 0.00 34 1008.2
20260504171755 66 307 4.3 12.2 0.00 0.00 0.00 32 1008.5
20260504171252 66 292 1.7 13.0 0.00 0.00 0.00 35 1008.5
20260504170749 67 191 10.4 11.3 0.00 0.00 0.00 34 1008.6
20260504170246 66 285 4.3 13.0 0.00 0.00 0.00 34 1008.5
20260504160205 65 229 15.6 16.5 0.00 0.00 0.00 37 1009.3
20260504151133 62 354 6.1 13.9 0.00 0.00 0.00 38 1009.4
20260504150630 63 218 13.9 13.9 0.00 0.00 0.00 38 1009.3
20260504150127 62 231 5.2 21.7 0.00 0.00 0.00 38 1009.4